[[{"header":{"parameterUnit":"m.s-1","parameterCategory":1,"la1":30.2992,"la2":30.254,"lo1":-89.0895,"lo2":-89.0443,"dy":0.0025,"dx":0.0025,"nx":19,"ny":19,"refTime":"2026-05-17T21:00:00:Z","depth":0,"parameterNumber":2,"parameterNumberName":"U-component_of_WINDS"},"data":[0,0,0,-4.8431,-4.8433,-4.852,-4.852,-4.8645,-4.8647,0,0,0,0,0,0,0,0,0,0,0,-4.8413,-4.8415,-4.843,-4.8433,-4.852,-4.852,-4.8645,-4.8647,0,0,0,0,0,0,0,0,0,0,0,-4.8413,-4.8414,-4.8416,-4.8433,-4.852,-4.852,-4.8645,-4.8574,0,0,0,0,0,0,0,0,0,0,-4.8487,-4.8479,-4.8414,-4.8416,-4.8434,-4.852,-4.852,-4.857,-4.8578,-4.8612,0,-4.8644,0,-4.8648,-4.8656,-4.8656,0,0,0,-4.8426,-4.8473,-4.8489,-4.8416,-4.8435,-4.852,-4.8479,-4.8575,-4.8584,-4.8623,-4.8646,-4.865,-4.865,-4.8657,-4.8657,-4.8874,-4.8875,0,0,-4.8421,-4.8433,-4.8483,-4.8495,-4.8483,-4.8476,-4.8482,-4.858,-4.8606,-4.8646,-4.8653,-4.8652,-4.8658,-4.8659,-4.8873,-4.8874,0,0,0,-4.8412,-4.843,-4.8443,-4.849,-4.8505,-4.8479,-4.8485,-4.8601,-4.8605,-4.8654,-4.8653,-4.8658,-4.866,-4.8871,-4.8873,-4.895,0,0,0,-4.8409,-4.8425,-4.8442,-4.845,-4.8504,-4.8555,-4.8505,-4.8598,-4.8609,-4.8653,-4.8658,-4.8661,-4.887,-4.8872,-4.8945,-4.8984,0,0,0,-4.8405,-4.8424,-4.844,-4.8451,-4.8489,-4.8553,-4.8561,-4.86,-4.8609,-4.8656,-4.8662,-4.8869,-4.8872,-4.894,-4.8976,-4.9043,0,0,0,-4.8403,-4.8507,-4.8442,-4.8557,-4.8488,-4.8601,-4.8561,-4.8644,-4.8694,-4.8659,-4.887,-4.8873,-4.8939,-4.8971,-4.9038,-4.9101,-4.9129,0,0,-4.854,-4.8524,-4.859,-4.8535,-4.8662,-4.8586,-4.8724,-4.8758,-4.8752,-4.8833,-4.8839,-4.8946,-4.8975,-4.9042,-4.9284,-4.9306,0,0,0,-4.8638,-4.8686,-4.8717,-4.8766,-4.8796,-4.8824,-4.8836,-4.8849,-4.8918,-4.8797,-4.899,-4.9007,-4.9045,-4.9075,-4.9094,-4.9126,-4.8888,-4.8887,-4.8887,-4.8847,-4.8834,-4.8944,-4.8942,-4.899,-4.9002,-4.904,-4.9059,-4.9031,-4.9078,-4.9101,-4.9249,-4.9284,-4.9298,-4.9332,-4.9135,-4.9135,-4.9135,-4.9135,-4.9045,-4.911,-4.9073,-4.9165,-4.9151,-4.9228,-4.9245,-4.9223,-4.9293,-4.923,-4.9264,-4.9194,-4.9323,-4.9352,-4.9141,-4.914,-4.9139,-4.9139,-4.9138,-4.9178,-4.9207,-4.9223,-4.9293,-4.9349,-4.9344,-4.9413,-4.9398,-4.9384,-4.9417,-4.944,-4.9439,-4.9434,-4.943,-4.943,-4.9431,-4.9431,-4.9432,-4.9432,-4.931,-4.9325,-4.9385,-4.9427,-4.9457,-4.9495,-4.951,-4.9539,-4.9567,-4.955,-4.9551,-4.9518,-4.9339,-4.9293,-4.944,-4.9438,-4.9437,-4.9437,-4.9436,-4.9512,-4.9465,-4.9558,-4.9588,-4.9636,-4.9693,-4.9674,-4.9734,-4.9756,-4.9791,-4.9752,-4.9623,-4.9604,-4.9589,-4.9551,-4.9755,-4.9755,-4.9755,-4.9755,-4.9624,-4.9614,-4.9706,-4.9756,-4.9802,-4.9795,-4.9901,-4.9914,-4.9921,-4.9933,-4.9902,-4.9851,-4.9837,-4.9826,-4.9806,-4.977,-5.0026,-5.0026,-5.0027,-4.9747,-4.9741,-4.9833,-4.984,-4.9877,-4.9909,-5.0008,-5.0066,-5.0063,-5.0037,-4.9943,-4.9931,-4.9849,-4.9823,-4.9792,-4.9761,-4.9695,0,0]},{"header":{"parameterUnit":"m.s-1","parameterCategory":1,"la1":30.2992,"la2":30.254,"lo1":-89.0895,"lo2":-89.0443,"dy":0.0025,"dx":0.0025,"nx":19,"ny":19,"refTime":"2026-05-17T21:00:00:Z","depth":0,"parameterNumber":3,"parameterNumberName":"V-component_of_WINDS"},"data":[0,0,0,4.5084,4.5084,4.5091,4.5091,4.5109,4.5109,0,0,0,0,0,0,0,0,0,0,0,4.5087,4.5087,4.5084,4.5084,4.5091,4.5091,4.5109,4.5109,0,0,0,0,0,0,0,0,0,0,0,4.5087,4.5087,4.5087,4.5084,4.5091,4.5091,4.5109,4.51,0,0,0,0,0,0,0,0,0,0,4.5092,4.5099,4.5087,4.5087,4.5084,4.5091,4.5091,4.51,4.5101,4.5109,0,4.5118,0,4.5114,4.5111,4.5111,0,0,0,4.508,4.5099,4.5096,4.5087,4.5084,4.5091,4.5087,4.51,4.5101,4.5111,4.5118,4.5119,4.5114,4.5111,4.5111,4.5173,4.5174,0,0,4.508,4.5091,4.5095,4.5097,4.5097,4.5087,4.5087,4.5101,4.511,4.5118,4.5119,4.5114,4.5111,4.5111,4.5173,4.5173,0,0,0,4.5081,4.509,4.5087,4.5097,4.5097,4.5087,4.5088,4.5109,4.5107,4.5119,4.5115,4.5111,4.5112,4.5172,4.5173,4.5207,0,0,0,4.5081,4.5091,4.5087,4.5094,4.5097,4.5103,4.5096,4.5106,4.5107,4.5115,4.5111,4.5112,4.5172,4.5173,4.5205,4.5221,0,0,0,4.5085,4.5092,4.5094,4.5095,4.5098,4.5103,4.5102,4.5106,4.5105,4.5111,4.5112,4.5171,4.5172,4.5203,4.5218,4.5241,0,0,0,4.5091,4.5124,4.5095,4.513,4.5098,4.5124,4.5101,4.512,4.5129,4.5111,4.5172,4.5173,4.5202,4.5216,4.5239,4.5262,4.5272,0,0,4.5138,4.513,4.515,4.5124,4.5158,4.5122,4.5161,4.5158,4.5149,4.5166,4.5167,4.5206,4.5218,4.524,4.5329,4.5337,0,0,0,4.5168,4.5182,4.5189,4.5199,4.5199,4.52,4.5191,4.519,4.5204,4.516,4.522,4.5227,4.524,4.525,4.5257,4.5268,4.5178,4.5178,4.5178,4.5249,4.5236,4.5268,4.5257,4.5267,4.5258,4.5265,4.5262,4.5246,4.526,4.5265,4.532,4.5333,4.5338,4.5349,4.5276,4.5276,4.5277,4.5277,4.5317,4.5335,4.5314,4.5337,4.5324,4.5343,4.5337,4.5325,4.5341,4.5315,4.5326,4.5299,4.5348,4.5357,4.5279,4.5279,4.5278,4.5278,4.5278,4.5368,4.5375,4.5374,4.5388,4.54,4.5387,4.5404,4.5391,4.5379,4.539,4.5393,4.5393,4.539,4.5392,4.5393,4.5393,4.5393,4.5393,4.5393,4.5421,4.542,4.5436,4.544,4.5445,4.545,4.5443,4.5448,4.545,4.5439,4.5439,4.5421,4.5355,4.5339,4.5396,4.5396,4.5395,4.5395,4.5395,4.5493,4.5475,4.55,4.5506,4.551,4.5523,4.5507,4.5518,4.552,4.5529,4.551,4.5464,4.5454,4.5448,4.5434,4.5513,4.5513,4.5513,4.5513,4.5536,4.5531,4.5554,4.5564,4.5572,4.556,4.5589,4.5585,4.5577,4.5578,4.5565,4.5546,4.554,4.5533,4.5526,4.5513,4.5609,4.5609,4.5609,4.558,4.5575,4.5602,4.5595,4.5598,4.5601,4.5628,4.564,4.5628,4.5613,4.5578,4.5574,4.5543,4.5534,4.5517,4.5505,4.5481,0,0]}]]